Flag for U.S.A. Weather past 2 weeks in Odessa, Texas, U.S.A.

Now
45 °F

Clear.


Feels Like: 43 °F
Forecast: 49 / 76 °F
Wind: 5 mph from West

Location: Odessa-Schlemeyer Field

Current Time: Jan 28, 2015 at 6:26:16 AM

Latest Report: Jan 28, 2015 at 5:53 AM


Visibility: 10 mi

Pressure: 30.06 "Hg

Humidity: 71%

Dew point: 36 °F

Location of OdessaLocation

Historic Weather in Odessa — Graph

°F

Odessa temperature yesterday

Maximum temperature yesterday: 73 °F (at 3:53 PM)
Minimum temperature yesterday: 36 °F (at 7:53 AM)
Average temperature yesterday: 54 °F

Past Weeks' High & Low Weather Summary

 TemperatureHumidityPressure
High73 °F (Jan 19, 4:53 PM)93% (Jan 21, 8:53 PM)30.45 "Hg (Jan 21, 8:53 PM)
Low22 °F (Jan 23, 7:53 AM)13% (Jan 19, 3:53 PM)29.87 "Hg (Jan 20, 4:53 AM)
Average44 °F62%30.18 "Hg
* Reported Jan 13 4:53 AM — Jan 28 4:53 AM, Odessa, Weather by CustomWeather, © 2014

Note: Actual official high and low records may vary slightly from our data, if they occured in-between our weather recording intervals... More about our weather records

Advertising

Odessa weather history for previous 24 hours

 ConditionsComfort  
Time TempWeatherWind HumidityBarometerVisibility
4:53 AM
Jan 28
46 °FClear.6 mph68%30.05 "Hg10 mi
3:53 AM51 °FClear.6 mph54%30.05 "Hg10 mi
2:53 AM51 °FClear.5 mph54%30.06 "Hg10 mi
1:53 AM52 °FClear.5 mph53%30.06 "Hg10 mi
12:53 AM54 °FClear.3 mph49%30.08 "Hg10 mi
11:53 PM
Jan 27
54 °FClear.3 mph49%30.09 "Hg10 mi
10:53 PM55 °FClear.5 mph47%30.09 "Hg9 mi
9:53 PM56 °FClear.5 mph46%30.10 "Hg10 mi
8:53 PM57 °FClear.No wind42%30.12 "Hg9 mi
7:53 PM61 °FClear.5 mph35%30.13 "Hg10 mi
6:53 PM63 °FClear.5 mph33%30.12 "Hg10 mi
5:53 PM68 °FSunny.8 mph27%30.10 "Hg10 mi
4:53 PM72 °FSunny.5 mph20%30.10 "Hg10 mi
3:53 PM73 °FSunny.7 mph19%30.10 "Hg10 mi
2:53 PM71 °FSunny.No wind22%30.11 "Hg10 mi
1:53 PM69 °FSunny.6 mph25%30.15 "Hg10 mi
12:53 PM67 °FSunny.6 mph30%30.18 "Hg10 mi
11:53 AM63 °FSunny.No wind33%30.22 "Hg10 mi
10:53 AM61 °FSunny.No wind39%30.22 "Hg10 mi
9:53 AM53 °FSunny.5 mph51%30.23 "Hg10 mi
8:53 AM40 °FSunny.No wind77%30.24 "Hg9 mi
7:53 AM36 °FSunny.3 mph79%30.22 "Hg10 mi
6:53 AM37 °FClear.5 mph76%30.20 "Hg10 mi
Weather by CustomWeather, © 2014

See weather overviewHow to use our weather pages